Terminal Aerodrome Forecast
Issued by NWS Houston/Galveston, TX

Home | Current Version | Previous Version | Text Only | Print | Product List | Glossary On
Versions: 1 2 3 4 5 6 7 8 9 10 11 12 13 14 15 16 17
000
FTUS44 KHGX 011120
TAFCLL
TAF
KCLL 011120Z 0112/0212 04008KT P6SM SKC
     FM011600 08007KT P6SM FEW250
     FM020200 11004KT P6SM SCT250=

USA.gov is the U.S. government's official web portal to all federal, state and local government web resources and services.